Regional Weather Roundup
Issued by NWS

Home | Current Version | Previous Version | Text Only | Print | Product List | Glossary Off
Versions: 1 2 3 4 5 6 7 8 9 10 11 12 13 14 15 16 17 18 19 20 21 22 23 24 25 26 27 28 29 30 31 32 33 34 35 36 37 38 39 40 41 42 43 44 45 46 47 48 49 50

000
ASUS43 KMPX 202310
RWRMN
WEATHER ROUNDUP FOR MINNESOTA
NATIONAL WEATHER SERVICE TWIN CITIES/CHANHASSEN MN
600 PM CDT FRI APR 20 2018


NOTE: "FAIR" INDICATES FEW OR NO CLOUDS BELOW 12,000 FEET WITH NO
SIGNIFICANT WEATHER AND/OR OBSTRUCTIONS TO VISIBILITY. N/A MEANS
CURRENT SKY AND/OR WEATHER CONDITIONS ARE NOT AVAILABLE.

MNZ060>063-068>070-210000-
   Twin Cities Metro

CITY           SKY/WX    TMP DP  RH WIND       PRES   REMARKS
TWIN CITIES    PTSUNNY   50  19  29 S6        30.42S
ST PAUL        FAIR      50  26  39 S7        30.43S
CRYSTAL        FAIR      50  19  29 S7        30.40S
BLAINE         PTSUNNY   54  16  22 CALM      30.41S
LAKEVILLE      FAIR      46  25  42 S3        30.42S
EDEN PRAIRIE   FAIR      51  22  31 S5        30.41S
SOUTH ST PAUL  FAIR      50  22  34 CALM      30.42R
LAKE ELMO      FAIR      48  28  46 SW7       30.42S
$$
MNZ001>005-007-008-013>017-022>024-027-028-210000-
   Northwest Minnesota

CITY           SKY/WX    TMP DP  RH WIND       PRES   REMARKS
BEMIDJI        FAIR      56  26  31 W3        30.34F
HALLOCK        FAIR      55  32  41 S13       30.33S
ROSEAU         FAIR      55  37  50 SW7       30.35S
WARROAD        FAIR      55  36  47 W6        30.34F
THIEF RVR FALL FAIR      54  32  43 S3        30.36F
CROOKSTON      FAIR      55  34  44 SW6       30.36S
FOSSTON        FAIR      57  27  30 CALM      30.35F
DETROIT LAKES  FAIR      52  19  28 SE5       30.38R
MOORHEAD       FAIR      54  28  37 S8        30.37R
PARK RAPIDS    FAIR      53  23  31 S5        30.36S
MAHNOMEN       FAIR      55  29  37 SW5       30.36R
$$
MNZ006-009>011-018-025>026-210000-
   North Central Minnesota

CITY           SKY/WX    TMP DP  RH WIND       PRES   REMARKS
BAUDETTE       FAIR      57  26  30 N8        30.33S
FLAG ISLAND    FAIR      48  25  40 SE10      30.31F
INTL FALLS     FAIR      59  19  21 CALM      30.33F
WASKISH        PTSUNNY   52  30  43 W6        30.35S
BIG FORK       FAIR      57  18  21 CALM      30.34S
LONGVILLE      FAIR      55  23  28 CALM      30.36S
GRAND RAPIDS   FAIR      55  22  27 CALM      30.37S
CRANE LAKE     FAIR      57  10  15 CALM      30.35F
ORR            FAIR      57  14  18 W5        30.32S
COOK           FAIR      57  18  21 W5        30.35S
WALKER         FAIR      54  26  35 E5        30.36S
$$
MNZ012-019>021-037-210000-
   Northeast Minnesota

CITY           SKY/WX    TMP DP  RH WIND       PRES   REMARKS
DULUTH         FAIR      54  23  30 SW6       30.36F
ELY            FAIR      55  14  19 SW3       30.34S
HIBBING        FAIR      55  20  25 NW9       30.34F
EVELETH        FAIR      57  20  24 SW6       30.35F
DULUTH HARBOR  FAIR      54  25  32 CALM      30.38F
TWO HARBORS    FAIR      59  32  36 S9        30.35F
SILVER BAY     FAIR      55  21  26 S10       30.35S
GRAND MARAIS     N/A     38  33  82 SW3       30.39F
G MARAIS ARPRT FAIR      48  10  21 SW5       30.38S
$$
MNZ029>031-032-039>041-046>048-054>057-064-210000-
   West Central Minnesota

CITY           SKY/WX    TMP DP  RH WIND       PRES   REMARKS
FERGUS FALLS   FAIR      52  30  43 S8        30.36R
WHEATON        CLOUDY    50  36  57 S10       30.40R
MORRIS         CLOUDY    50  37  62 S12       30.38R
ALEXANDRIA     FAIR      53  29  39 SW9       30.39R
ELBOW LAKE     FAIR      50  34  52 S13       30.39R
WADENA         FAIR      50  25  37 SE6       30.38R
GLENWOOD       FAIR      50  30  46 S5        30.40R
APPLETON       CLOUDY    46  32  57 S8        30.40R
BENSON         CLOUDY    50  36  57 S9        30.41R
ORTONVILLE     MOSUNNY   45  36  70 SE8       30.39R
MADISON        CLOUDY    43  36  75 SE9       30.41R
WILLMAR        FAIR      46  36  66 SE8       30.44R
$$
MNZ033>034-036-042>043-049>051-058-059-210000-
   Central Minnesota

CITY           SKY/WX    TMP DP  RH WIND       PRES   REMARKS
ST CLOUD       FAIR      48  21  34 S8        30.41R
SAUK CENTRE    FAIR      49  27  43 S7        30.40R
PAYNESVILLE    FAIR      48  31  50 S8        30.41S
AITKIN         FAIR      52  19  28 S7        30.37S
PINE RIVER     FAIR      52  25  35 S6        30.40R
BRAINERD       FAIR      52  18  26 S8        30.39S
STAPLES        FAIR      50  18  27 SW6       30.38S
LONG PRAIRIE   FAIR      48  23  37 E3        30.40R
LITTLE FALLS   FAIR      50  10  20 S7        30.40R
LITCHFIELD     FAIR      46  25  42 CALM      30.42S
BUFFALO        FAIR      48  19  31 S5        30.43S
MAPLE LAKE     FAIR      48  26  42 S6        30.42S
HUTCHINSON     FAIR      45  30  55 S3        30.43S
$$
MNZ037-044-045-052-053-210000-
   East Central Minnesota

CITY           SKY/WX    TMP DP  RH WIND       PRES   REMARKS
PRINCETON      FAIR      54  18  24 S3        30.41S
MORA           FAIR      50  21  32 S3        30.42S
CAMBRIDGE      FAIR      54  30  40 SW5       30.41S
RUSH CITY      FAIR      52  20  28 CALM      30.41S
MOOSE LAKE     FAIR      54  25  32 CALM      30.36F
HINCKLEY       FAIR      52  23  32 SW6       30.40S
CLOQUET        FAIR      55  19  24 SW3       30.37S
MCGREGOR       FAIR      54  23  30 S6        30.38S
$$
MNZ071>073-080-081-089-090-097-098-210000-
   Southwest Minnesota

CITY           SKY/WX    TMP DP  RH WIND       PRES   REMARKS
MONTEVIDEO     CLOUDY    45  32  61 SW10      30.42R
GRANITE FALLS  MOSUNNY   44  34  68 SE9       30.43R
CANBY          CLOUDY    41  35  79 E5        30.42R
MARSHALL       CLOUDY    40  32  73 SE10      30.42R
REDWOOD FALLS  CLOUDY    41  32  70 SE10      30.42R
OLIVIA         MOSUNNY   46  32  57 SE8       30.42R
PIPESTONE      PTSUNNY  N/A N/A N/A SE8       30.39R
WINDOM         CLOUDY    39  21  48 E3        30.42R
WORTHINGTON    MOSUNNY   38  33  82 E7        30.41R
JACKSON        CLOUDY    36  30  80 E3        30.42R
TRACY          CLOUDY    40  33  77 S6        30.41R
SLAYTON        CLOUDY    37  32  84 SE7       30.41R
$$
MNZ065>067-074>077-082>085-091>093-210000-
   South Central Minnesota

CITY           SKY/WX    TMP DP  RH WIND       PRES   REMARKS
MANKATO        FAIR      44  25  47 SE6       30.43S
NEW ULM        CLOUDY    43  27  52 S5        30.42S
ST JAMES       CLOUDY    39  27  60 E6        30.44R
FAIRMONT       CLOUDY    38  28  67 E3        30.43R
GLENCOE        FAIR      48  29  48 SE3       30.42S
OWATONNA       FAIR      46  28  49 E3        30.42S
WASECA         FAIR      43  27  52 SE3       30.44R
ALBERT LEA     FAIR      43  21  42 E3        30.42S
$$
MNZ078>079-086>088-094>096-210000-
   Southeast Minnesota

CITY           SKY/WX    TMP DP  RH WIND       PRES   REMARKS
ROCHESTER      FAIR      42  29  59 SW5       30.42F
RED WING       FAIR      52   7  16 S7        30.41F
STANTON        FAIR      46  33  59 SW6       30.41F
DODGE CENTER   FAIR      45  27  49 CALM      30.42F
WINONA         FAIR      54  28  37 SW3       30.40F
AUSTIN         FAIR      43  25  49 E3        30.42F
PRESTON        FAIR      45  16  31 CALM      30.42F
$$
ABBREVIATIONS USED IN REMARKS
   TC - TEMPERATURES IN CELSIUS
  WCI - WIND CHILL INDEX
   HX - HEAT INDEX
  VSB - VISIBILITY
$$



USA.gov is the U.S. government's official web portal to all federal, state and local government web resources and services.